CMXK1: Otter Creek At Climax

Data processed at Tue May 21 2019 23:50


All information presented herein is the property of the government of the United States of America and may be revised or deleted at any time without prior notice.
Dissemination of this information without the expressed written consent of the Public Affairs Office, Tulsa District U.S. Army Corps of Engineers is strictly prohibited.
These data are gathered electronically and, as presented, have not undergone any form of quality control. These data are not guaranteed to be valid or correct.
Go to home page.
Go to station list.
Go to home page.

Upstream stations:

Downstream station:
Previous Day
Next Day
Current Day
    
SHEF ID:       CMXK1     OTTER C AT CLIMAX, KS
STATION TYPE:  
Regulating: Stage =    19.00, Flow =     8581

               PRECIP     STAGE  STAGE(2)  RIV-FLOW  BAT-LOAD
                   in        ft        ft       cfs      volt
              Ccp-Rev   Ccp-Rev   Ccp-Rev   Ccp-Rev   Ccp-Rev
(US/Central)
05/21 00:00      0.11     27.59      ----     40733     12.65
05/21 01:00      0.09     27.36      ----     38301     12.65
05/21 02:00      0.23     26.65      ----     31565     12.65
05/21 03:00      0.18     25.73      ----     24372     12.65
05/21 04:00      0.11     25.16      ----     20663     12.73
05/21 05:00      0.22     24.43      ----     16945     12.65
05/21 06:00      0.29     23.80      ----     14529     12.73
05/21 07:00      0.75     23.22      ----     13151     12.73
05/21 08:00      0.22     22.78      ----     12320     12.65
05/21 09:00      0.15     22.78      ----     12320     12.73
05/21 10:00      0.19     23.58      ----     13973     12.73
05/21 11:00      0.00     23.81      ----     14565     12.97
05/21 12:00      0.00     24.56      ----     17552     13.05
05/21 13:00      0.00     24.80      ----     18720     12.89
05/21 14:00      0.01     24.73      ----     18373      ----
05/21 15:00      0.01     24.29      ----     16381     13.60
05/21 16:00      0.00     23.23      ----     13173     13.37
05/21 17:00      0.00     21.61      ----     10790     13.53
05/21 18:00      0.00     18.15      ----      7915     13.37
05/21 19:00      0.00     14.27      ----      5166     13.13
05/21 20:00      0.00     11.96      ----      3763     13.13
05/21 21:00      0.00     11.11      ----      3294     13.05
05/21 22:00      0.00     10.64      ----      3046     13.05
05/21 23:00      0.00     10.27      ----      2856     13.05